Regional Weather Roundup
Issued by NWS

Home | Current Version | Previous Version | Text Only | Print | Product List | Glossary Off
Versions: 1 2 3 4 5 6 7 8 9 10 11 12 13 14 15 16 17 18 19 20 21 22 23 24 25 26 27 28 29 30 31 32 33 34 35 36 37 38 39 40 41 42 43 44 45 46 47 48 49 50

000
ASUS43 KLSX 240110
RWRMO

WEATHER SUMMARY FOR MISSOURI
NATIONAL WEATHER SERVICE SPRINGFIELD MO
800 PM CDT FRI JUN 23 2017

NOTE: "FAIR" INDICATES FEW OR NO CLOUDS BELOW 12,000 FEET WITH NO
       SIGNIFICANT WEATHER AND/OR OBSTRUCTIONS TO VISIBILITY.
       CURRENT SKY AND/OR WEATHER CONDITIONS ARE NOT AVAILABLE FOR
       CHILLICOTHE AND FARMINGTON.

MOZ001>031-035>038-043-044-053-054-240200-
...NORTHERN AND WESTERN MISSOURI...

CITY           SKY/WX    TMP DP  RH WIND       PRES   REMARKS
KANSAS CTY INT PTCLDY    73  55  53 NW9       30.01R
KANSAS C DTWN  CLEAR     75  53  46 NW14      29.99R
LEE`S SUMMIT   CLEAR     76  53  44 N13       30.00R
ST JOSEPH      PTCLDY    74  54  49 NW12      30.01R
CHILLICOTHE      N/A     74  54  49 VRB5      29.99R
KIRKSVILLE     CLEAR     72  54  53 NW9       29.95R

$$
MOZ066>068-077>081-088>096-101>105-240200-
...SOUTHWEST MISSOURI...

CITY           SKY/WX    TMP DP  RH WIND       PRES   REMARKS
SPRINGFIELD    CLEAR     76  62  62 N8        29.95R
JOPLIN         CLEAR     79  60  52 N6        29.97R
BRANSON        MOCLDY    75  64  69 N6        29.96R

$$
MOZ032>034-039>042-045>050-055>058-069>072-240200-
...CENTRAL MISSOURI...

CITY           SKY/WX    TMP DP  RH WIND       PRES   REMARKS
COLUMBIA       CLEAR     77  50  38 NW13      29.92R
JEFFERSON CITY CLEAR     81  54  39 NW8       29.90R
ROLLA          CLOUDY    76  60  57 NW7       29.91R
SEDALIA        CLEAR     76  55  48 NW6       29.97R
WHITEMAN AFB   CLEAR     76  50  40 NW9       29.96R
WARRENSBURG    CLEAR     75  50  41 NW6       29.97R
OSAGE BEACH    CLEAR     75  61  61 CALM      29.94R

$$
MOZ051-052-059>065-240200-
...EAST CENTRAL MISSOURI...

CITY           SKY/WX    TMP DP  RH WIND       PRES   REMARKS
ST LOUIS INTL  CLOUDY    81  59  47 NW7       29.85S
SPIRIT OF STL  MOCLDY    78  65  63 W5        29.85R
ST CHARLES     CLOUDY    80  61  52 NW8       29.84R

$$
MOZ072>076-082>087-097>100-106>115-240200-
...SOUTH CENTRAL AND SOUTHEAST MISSOURI...

CITY           SKY/WX    TMP DP  RH WIND       PRES   REMARKS
CAPE GIRARDEAU CLOUDY    77  61  57 N8        29.83R
FARMINGTON     CLOUDY    74  59  59 NW3       29.89R
POPLAR BLUFF   CLOUDY    75  72  90 N6        29.85R
WEST PLAINS    CLOUDY    71  59  65 N7        29.93R

$$




USA.gov is the U.S. government's official web portal to all federal, state and local government web resources and services.